Regional Weather Roundup
Issued by NWS Upton, NY

Current Version | Previous Version | Graphics & Text | Print | Product List | Glossary Off
Versions: 1 2 3 4 5 6 7 8 9 10 11 12 13 14 15 16 17 18 19 20 21 22 23 24 25 26 27 28 29 30 31 32 33 34 35 36 37 38 39 40 41 42 43 44 45 46 47 48 49 50
000 ASUS41 KOKX 021604 RWROKX REGIONAL WEATHER ROUNDUP NATIONAL WEATHER SERVICE NEW YORK NY 1200 PM EDT SUN AUG 02 2015 NOTE: "FAIR" INDICATES FEW OR NO CLOUDS BELOW 12,000 FEET WITH NO SIGNIFICANT WEATHER AND/OR OBSTRUCTIONS TO VISIBILITY. NYZ071-072-176-178-NJZ106-104-021700- NEW YORK CITY METRO AREA CITY SKY/WX TMP DP RH WIND PRES REMARKS CENTRAL PARK SUNNY 86 54 33 SW3 29.96S LAGUARDIA APRT MOSUNNY 85 51 31 VRB6 29.92F KENNEDY INTL MOSUNNY 85 56 37 S8 29.95R NEWARK/LIBERTY MOSUNNY 87 51 28 SW9 29.93S BRNX BOT. GARD N/A 82 52 34 W6 29.95S TETERBORO MOSUNNY 85 53 33 W8 29.92S $$ NYZ177-179-078>081-021700- LONG ISLAND NEW YORK CITY SKY/WX TMP DP RH WIND PRES REMARKS FARMINGDALE SUNNY 84 57 39 S9 29.94S ISLIP MOSUNNY 83 56 39 S9 29.92S SHIRLEY SUNNY 84 55 36 S10 29.95R WESTHAMPTON SUNNY 83 53 35 S10 29.96R MONTAUK POINT N/A 81 57 43 N3 29.95S $$ NYZ052-065-067-021700- HUDSON VALLEY CITY SKY/WX TMP DP RH WIND PRES REMARKS WHITE PLAINS MOSUNNY 83 56 39 S7 29.94F NEWBURGH MOSUNNY 82 57 42 W7 29.95S MONTGOMERY SUNNY 83 56 39 S9 29.93S POUGHKEEPSIE SUNNY 85 54 34 SW9 29.92S ALBANY MOSUNNY 81 58 45 VRB5 29.91S $$ NJZ001-105-106-008-010-013-015-019>022-104-021700- NEW JERSEY CITY SKY/WX TMP DP RH WIND PRES REMARKS NEWARK/LIBERTY MOSUNNY 87 51 28 SW9 29.93S TETERBORO MOSUNNY 85 53 33 W8 29.92S CALDWELL SUNNY 84 52 33 VRB6 29.94S MORRISTOWN MOSUNNY 86 52 30 NW6 29.94S SOMERVILLE SUNNY 85 55 35 S8 29.92S SUSSEX SUNNY 80 56 43 S7 29.94F ANDOVER N/A 79 59 50 CALM 29.96S TRENTON SUNNY 84 53 34 MISG 29.94S MILLVILLE PTSUNNY 85 59 41 NW6 29.96R ATLANTIC CITY MOSUNNY 85 59 41 W7 29.95S WRIGHTSTOWN SUNNY 84 59 41 VRB3 29.92S TOMS RIVER N/A 88 55 33 W3 29.94S BELMAR SUNNY 86 57 37 CALM 29.95S $$ PAZ047>061-062-071-021700- EASTERN PENNSYLVANIA CITY SKY/WX TMP DP RH WIND PRES REMARKS PHILADELPHIA PTSUNNY 85 55 35 W7 29.95S ALLENTOWN SUNNY 83 58 42 VRB7 29.95F SCRANTON SUNNY 79 58 48 SW12 29.95F $$ CTZ002-004>006-009-010-012-RIZ004-006-007-MAZ004-011-015-021700- SOUTHERN NEW ENGLAND IN CT CITY SKY/WX TMP DP RH WIND PRES REMARKS BRADLEY INTL MOSUNNY 82 58 43 SW12 29.91S HARTFORD MOSUNNY 83 56 39 SW12G20 29.92S DANBURY SUNNY 80 53 39 SW9 29.96S WTRBRY/OXFORD MOSUNNY 79 57 47 W6 29.98S BRIDGEPORT SUNNY 81 55 40 S6 29.94S MERIDEN SUNNY 84 55 36 W6 29.93S NEW HAVEN MOSUNNY 79 63 57 S7 29.94S CHESTER NOT AVBL GROTON SUNNY 79 57 46 S7 29.93S WILLIMANTIC SUNNY 82 55 39 VRB6 29.93S IN RI CITY SKY/WX TMP DP RH WIND PRES REMARKS PROVIDENCE MOSUNNY 83 54 36 W8G17 29.93R BLOCK ISLAND N/A 82 55 39 W7 29.95S WESTERLY SUNNY 81 53 37 SW9 29.95R IN MA CITY SKY/WX TMP DP RH WIND PRES REMARKS BOSTON MOSUNNY 83 53 35 W8G17 29.90S WORCESTER SUNNY 77 54 44 W12G22 29.95S WESTFIELD SUNNY 81 60 48 S9 29.91F PROVINCETOWN SUNNY 79 54 41 SW7 29.92S NANTUCKET SUNNY 80 60 50 SW14 29.93R $$ ANZ330-335-338-340-345-350-353-355-021700- COASTAL MARINE OBSERVATIONS STATION/POSITION TIME SKY/WX TEMP WIND PRES VSBY WAVE AIR SEA DIR/SP/G HT/PER (UTC) (F) (DEG/KT/KT) (MB) (MI) (FT/S) NY HARB ENTRANCE 1450 75 78 30/ 2/ 4 1013.5 3/ 7 4S FIRE IS NOT AVBL 20S FIRE ISLAND 1450 74 76 60/ 4/ 4 1013.4 4/ 8 GREAT SOUTH BAY 1500 75 81 140/ 4/ 6 N/A 23SW MTP 1550 75 75 180/ 6/ 6 1013.7 3/ 8 HUDSON CANYON NOT AVBL KINGS POINT 1500 78 20/ 5/ 8 1012.9 EXECUTION ROCKS 1500 75 30/ 2/ 4 N/A CENTRAL LI SOUND NOT AVBL EASTERN LI SOUND 1500 73 69 270/ 4/ 4 N/A ROBBINS REEF 1500 77 150/ 4/ 5 1012.5 $$ >>>>>>>>>>>>>>>>>>>>>>>>>>>> KEY <<<<<<<<<<<<<<<<<<<<<<<<<<< > < > SKY/WX - SKY CONDITION/PRESENT WEATHER < > TMP - TEMPERATURE IN FAHRENHEIT < > DP - DEWPOINT IN FAHRENHEIT < > RH - RELATIVE HUMIDITY IN PERCENT < > WIND - DIRECTION AND SPEED IN MPH < > PRES - MEAN SEA LEVEL PRESSURE IN INCHES OF HG < > WCI - WIND CHILL INDEX < > VSB - VISIBILITY IN MILES < > HX - HEAT INDEX < > TC - TEMPERATURE IN CELSIUS < > VRB - VARIABLE WIND DIRECTION < > < >>>>>>>>>>>>>>>>>>>>>>>>>>>> KEY <<<<<<<<<<<<<<<<<<<<<<<<<<<

USA.gov is the U.S. government's official web portal to all federal, state and local government web resources and services.